QPF
0.00 0.00 0.00 0.00 0.00 0.00 0.00 0.00 0.00 0.00 0.00 0.00 0.00 0.00 0.00 0.00 0.00 0.00 0.00 0.00 0.00 0.00 0.00 0.00 0.00 0.00 0.00 0.00 0.00 0.00 0.00 0.00 0.00 0.00 0.00 0.00 0.00 0.00 0.00 0.00 0.00 0.00 0.00 0.00 0.00
0.00 0.00 0.00 0.00 0.00 0.00 0.00 0.00 0.00 0.00 0.00 0.00 0.00 0.00 0.00 0.00 0.00 0.00 0.00 0.00 0.00 0.00 0.00 0.00 0.00 0.00 0.00 0.00 0.00 0.00 0.00 0.00 0.00 0.00 0.00 0.00 0.00 0.00 0.00 0.00 0.00 0.00 0.00 0.00 0.00
0.00 0.00 0.00 0.00 0.00 0.00 0.00 0.00 0.00 0.00 0.00 0.00 0.00 0.00 0.00 0.00 0.00 0.00 0.00 0.00 0.00 0.00 0.00 0.00 0.00 0.00 0.00 0.00 0.00 0.00 0.00 0.00 0.00 0.00 0.00 0.00 0.00 0.00 0.00 0.00 0.00 0.00 0.00 0.00 0.00
0.00 0.00 0.00 0.00 0.00 0.00 0.00 0.00 0.00 0.00 0.00 0.00 0.00 0.00 0.00 0.00 0.00 0.00 0.00 0.00 0.00 0.00 0.00 0.00 0.00 0.00 0.00 0.00 0.00 0.00 0.00 0.00 0.00 0.00 0.00 0.00 0.00 0.00 0.00 0.00 0.00 0.00 0.00 0.00 0.00
0.00 0.00 0.00 0.00 0.00 0.00 0.00 0.00 0.00 0.00 0.00 0.00 0.00 0.00 0.00 0.00 0.00 0.00 0.00 0.00 0.00 0.00 0.00 0.00 0.00 0.00 0.00 0.00 0.00 0.00 0.00 0.00 0.00 0.00 0.00 0.00 0.00 0.00 0.00 0.00 0.00 0.00 0.00 0.00 0.00
0.00 0.00 0.00 0.00 0.00 0.00 0.00 0.00 0.00 0.00 0.00 0.00 0.00 0.00 0.00 0.00 0.00 0.00 0.00 0.00 0.00 0.00 0.00 0.00 0.00 0.00 0.00 0.00 0.00 0.00 0.00 0.00 0.00 0.00 0.00 0.00 0.00 0.00 0.00 0.00 0.00 0.00 0.00 0.00 0.00
0.00 0.00 0.00 0.00 0.00 0.00 0.00 0.00 0.00 0.00 0.00 0.00 0.00 0.00 0.00 0.00 0.00 0.00 0.00 0.00 0.00 0.00 0.00 0.00 0.00 0.00 0.00 0.00 0.00 0.00 0.00 0.00 0.00 0.00 0.00 0.00 0.00 0.00 0.00 0.00 0.00 0.00 0.00 0.00 0.00
0.00 0.00 0.00 0.00 0.00 0.00 0.00 0.00 0.00 0.00 0.00 0.00 0.00 0.00 0.00 0.00 0.00 0.00 0.00 0.00 0.00 0.00 0.00 0.00 0.00 0.00 0.00 0.00 0.00 0.00 0.00 0.00 0.00 0.00 0.00 0.00 0.00 0.00 0.00 0.00 0.00 0.00 0.00 0.00 0.00
0.00 0.00 0.00 0.00 0.00 0.00 0.00 0.00 0.00 0.00 0.00 0.00 0.00 0.00 0.00 0.00 0.00 0.00 0.00 0.00 0.00 0.00 0.00 0.00 0.00 0.00 0.00 0.00 0.00 0.00 0.00 0.00 0.00 0.00 0.00 0.00 0.00 0.00 0.00 0.00 0.00 0.00 0.00 0.00 0.00
0.00 0.00 0.00 0.00 0.00 0.00 0.00 0.00 0.00 0.00 0.00 0.00 0.00 0.00 0.00 0.00 0.00 0.00 0.00 0.00 0.00 0.00 0.00 0.00 0.00 0.00 0.00 0.00 0.00 0.00 0.00 0.00 0.00 0.00 0.00 0.00 0.00 0.00 0.00 0.00 0.00 0.00 0.00 0.00 0.00
0.00 0.00 0.00 0.00 0.00 0.00 0.00 0.00 0.00 0.00 0.00 0.00 0.00 0.00 0.00 0.00 0.00 0.00 0.00 0.00 0.00 0.00 0.00 0.00 0.00 0.00 0.00 0.00 0.00 0.00 0.00 0.00 0.00 0.00 0.00 0.00 0.00 0.00 0.00 0.00 0.00 0.00 0.00 0.00 0.00
0.00 0.00 0.00 0.00 0.00 0.00 0.00 0.00 0.00 0.00 0.00 0.00 0.00 0.00 0.00 0.00 0.00 0.00 0.00 0.00 0.00 0.00 0.00 0.00 0.00 0.00 0.00 0.00 0.00 0.00 0.00 0.00 0.00 0.00 0.00 0.00 0.00 0.00 0.00 0.00 0.00 0.00 0.00 0.00 0.00
0.00 0.00 0.00 0.00 0.00 0.00 0.00 0.00 0.00 0.00 0.00 0.00 0.00 0.00 0.00 0.00 0.00 0.00 0.00 0.00 0.00 0.00 0.00 0.00 0.00 0.00 0.00 0.00 0.00 0.00 0.00 0.00 0.00 0.00 0.00 0.00 0.00 0.00 0.01 0.00 0.00 0.00 0.00 0.00 0.00
0.00 0.00 0.00 0.00 0.00 0.00 0.00 0.00 0.00 0.00 0.00 0.00 0.00 0.00 0.00 0.00 0.00 0.00 0.00 0.00 0.00 0.00 0.00 0.00 0.00 0.00 0.00 0.00 0.00 0.00 0.00 0.00 0.00 0.00 0.00 0.00 0.00 0.00 0.00 0.00 0.00 0.00 0.00 0.00 0.00
0.00 0.00 0.00 0.00 0.00 0.00 0.00 0.00 0.00 0.00 0.00 0.00 0.00 0.00 0.00 0.00 0.00 0.00 0.00 0.00 0.00 0.00 0.00 0.00 0.00 0.00 0.00 0.00 0.00 0.00 0.00 0.00 0.00 0.00 0.00 0.00 0.00 0.00 0.00 0.00 0.00 0.00 0.00 0.00 0.00
0.00 0.00 0.00 0.00 0.00 0.00 0.00 0.00 0.00 0.00 0.00 0.00 0.00 0.00 0.00 0.00 0.00 0.00 0.00 0.00 0.00 0.00 0.00 0.00 0.00 0.00 0.00 0.00 0.00 0.00 0.00 0.00 0.00 0.00 0.00 0.00 0.00 0.01 0.00 0.00 0.00 0.00 0.00 0.00 0.00
0.00 0.00 0.00 0.00 0.00 0.00 0.00 0.00 0.00 0.00 0.00 0.00 0.00 0.00 0.00 0.00 0.00 0.00 0.00 0.00 0.00 0.00 0.00 0.00 0.00 0.00 0.00 0.00 0.00 0.00 0.00 0.00 0.00 0.00 0.00 0.00 0.00 0.00 0.00 0.00 0.00 0.00 0.00 0.00 0.00
0.00 0.00 0.00 0.00 0.00 0.00 0.00 0.00 0.00 0.00 0.00 0.00 0.00 0.00 0.00 0.00 0.00 0.00 0.00 0.00 0.00 0.00 0.00 0.00 0.00 0.00 0.00 0.00 0.00 0.00 0.00 0.00 0.00 0.00 0.00 0.00 0.00 0.00 0.00 0.00 0.00 0.00 0.00 0.00 0.00
0.00 0.00 0.00 0.00 0.00 0.00 0.00 0.00 0.00 0.00 0.00 0.00 0.00 0.00 0.00 0.00 0.00 0.00 0.00 0.00 0.00 0.00 0.00 0.00 0.00 0.00 0.00 0.00 0.00 0.00 0.00 0.00 0.00 0.00 0.00 0.00 0.00 0.00 0.00 0.00 0.00 0.00 0.00 0.00 0.00
0.00 0.00 0.00 0.00 0.00 0.00 0.00 0.00 0.00 0.00 0.00 0.00 0.00 0.00 0.00 0.00 0.00 0.00 0.00 0.00 0.00 0.00 0.00 0.00 0.00 0.00 0.00 0.00 0.00 0.00 0.00 0.00 0.00 0.00 0.00 0.00 0.01 0.00 0.00 0.00 0.00 0.00 0.00 0.00 0.00
0.00 0.00 0.00 0.00 0.00 0.00 0.00 0.00 0.00 0.00 0.00 0.00 0.00 0.00 0.00 0.00 0.00 0.00 0.00 0.00 0.00 0.00 0.00 0.00 0.00 0.00 0.00 0.00 0.00 0.00 0.00 0.00 0.00 0.00 0.00 0.00 0.00 0.00 0.00 0.00 0.00 0.00 0.00 0.00 0.00
0.00 0.00 0.00 0.00 0.00 0.00 0.00 0.00 0.00 0.00 0.00 0.00 0.00 0.00 0.00 0.00 0.00 0.00 0.00 0.00 0.00 0.00 0.00 0.00 0.00 0.00 0.00 0.00 0.00 0.00 0.00 0.00 0.00 0.00 0.00 0.00 0.00 0.00 0.00 0.00 0.00 0.00 0.00 0.00 0.00
0.00 0.00 0.00 0.00 0.00 0.00 0.00 0.00 0.00 0.00 0.00 0.00 0.00 0.00 0.00 0.00 0.00 0.00 0.00 0.00 0.00 0.00 0.00 0.00 0.00 0.00 0.00 0.00 0.00 0.00 0.00 0.00 0.00 0.00 0.00 0.00 0.00 0.00 0.00 0.00 0.00 0.00 0.00 0.00 0.00
0.00 0.00 0.00 0.00 0.00 0.00 0.00 0.00 0.00 0.00 0.00 0.00 0.00 0.00 0.00 0.00 0.00 0.00 0.00 0.00 0.00 0.00 0.00 0.00 0.00 0.00 0.00 0.00 0.00 0.00 0.00 0.00 0.00 0.00 0.00 0.00 0.00 0.00 0.00 0.00 0.00 0.00 0.00 0.00 0.00
0.00 0.00 0.00 0.00 0.00 0.00 0.00 0.00 0.00 0.00 0.00 0.00 0.00 0.00 0.00 0.00 0.00 0.00 0.00 0.00 0.00 0.00 0.00 0.00 0.00 0.00 0.00 0.00 0.00 0.00 0.00 0.00 0.00 0.00 0.00 0.00 0.00 0.00 0.00 0.00 0.00 0.00 0.00 0.00 0.00
0.00 0.00 0.00 0.00 0.00 0.00 0.00 0.00 0.00 0.00 0.00 0.00 0.00 0.00 0.00 0.00 0.00 0.00 0.00 0.00 0.00 0.00 0.00 0.00 0.00 0.00 0.00 0.00 0.00 0.00 0.00 0.00 0.00 0.00 0.00 0.00 0.00 0.00 0.00 0.00 0.00 0.00 0.00 0.00 0.00
0.00 0.00 0.00 0.00 0.00 0.00 0.00 0.00 0.00 0.00 0.00 0.00 0.00 0.00 0.00 0.00 0.00 0.00 0.00 0.00 0.00 0.00 0.00 0.00 0.00 0.00 0.00 0.00 0.00 0.00 0.00 0.00 0.00 0.00 0.00 0.00 0.00 0.00 0.00 0.00 0.00 0.00 0.00 0.00 0.00
MSLP
1019.88 1019.40 1018.98 1018.65 1018.45 1017.91 1017.24 1016.57 1016.09 1015.69 1015.23 1014.83 1014.34 1013.88 1013.53 1013.12 1012.16 1011.31 1009.52 1008.58 1008.14 1008.04 1008.12 1006.92 1005.68 1005.08 1004.71 1004.04 1003.19 1003.03 1002.52 1001.08 999.76 998.67 997.96 998.14 998.37 998.42 998.64 998.41 998.22 998.25 999.26 1000.39 1001.43
1019.86 1019.35 1018.96 1018.80 1018.46 1017.81 1016.95 1016.44 1015.97 1015.53 1014.99 1014.62 1014.09 1013.72 1013.45 1013.17 1011.62 1009.30 1008.35 1008.17 1008.07 1008.22 1007.78 1005.97 1004.69 1004.20 1003.80 1002.93 1002.56 1002.57 1001.71 1000.12 999.27 998.81 998.69 998.43 998.83 999.00 998.76 998.56 998.09 998.29 999.21 1000.14 1000.84
1019.75 1019.39 1019.13 1018.90 1018.41 1017.48 1016.76 1016.34 1015.81 1015.28 1014.84 1014.35 1013.83 1013.58 1013.38 1013.03 1010.59 1007.93 1008.06 1007.89 1008.05 1008.21 1007.51 1005.91 1004.81 1003.99 1003.00 1002.18 1001.85 1001.67 1001.46 1000.24 999.74 999.75 999.73 999.50 999.45 999.23 998.95 998.66 998.30 998.48 999.13 999.54 1000.11
1019.85 1019.62 1019.24 1018.78 1018.11 1017.29 1016.66 1016.16 1015.56 1014.97 1014.66 1014.07 1013.64 1013.39 1013.24 1012.29 1008.83 1007.59 1007.86 1007.98 1008.17 1008.03 1007.07 1005.38 1004.55 1003.48 1002.22 1001.69 1001.42 1001.53 1000.89 1000.86 1000.63 1000.30 1000.12 1000.06 999.80 999.32 999.33 999.02 998.73 998.54 998.53 998.80 999.27
1019.98 1019.66 1019.12 1018.59 1017.90 1017.00 1016.52 1015.84 1015.12 1014.66 1014.32 1013.75 1013.37 1013.19 1012.63 1010.35 1007.13 1007.38 1007.76 1007.92 1007.79 1007.36 1005.98 1004.70 1003.95 1002.99 1002.10 1001.43 1001.52 1001.39 1000.85 1000.63 1000.51 1000.40 1000.43 1000.15 999.79 999.60 999.10 998.62 998.29 998.36 998.41 998.37 998.45
1019.98 1019.52 1018.90 1018.40 1017.53 1016.81 1016.24 1015.40 1014.79 1014.27 1013.86 1013.34 1013.08 1013.10 1011.78 1008.14 1005.84 1006.69 1006.85 1006.90 1006.63 1005.65 1004.90 1004.36 1003.52 1003.23 1002.78 1002.02 1001.62 1001.18 1000.96 1000.73 1000.33 1000.05 999.91 999.75 999.47 999.17 998.69 998.45 998.33 998.12 998.21 998.23 997.98
1019.94 1019.73 1018.85 1018.18 1017.28 1016.69 1015.94 1015.11 1014.41 1013.90 1013.42 1012.96 1012.81 1012.55 1010.01 1006.58 1005.61 1005.90 1006.19 1005.90 1005.44 1005.17 1004.53 1004.11 1004.14 1003.71 1002.92 1002.07 1001.38 1001.29 1001.00 1000.01 999.62 999.66 999.59 999.63 999.24 998.67 998.44 998.62 998.36 998.10 997.96 998.16 998.33
1019.86 1019.45 1018.76 1017.98 1017.17 1016.37 1015.48 1014.65 1013.97 1013.37 1012.98 1012.65 1012.69 1011.83 1007.84 1005.94 1005.83 1005.82 1005.61 1005.43 1005.41 1005.23 1005.10 1004.68 1004.40 1004.02 1003.31 1002.41 1001.69 1001.10 1000.21 999.32 999.34 999.57 999.47 999.53 998.31 998.30 998.51 998.64 998.54 998.30 998.20 998.08 998.49
1019.90 1019.49 1018.67 1017.84 1016.83 1015.87 1015.05 1014.17 1013.37 1012.77 1012.73 1012.51 1012.01 1010.40 1006.49 1006.38 1005.84 1005.32 1005.33 1004.80 1004.78 1005.02 1004.95 1004.84 1004.64 1003.70 1002.73 1001.93 1001.03 1000.15 998.96 998.72 998.93 999.34 999.75 999.32 998.57 998.34 998.61 998.79 998.67 998.58 998.59 998.50 998.57
1020.12 1019.45 1018.64 1017.65 1016.51 1015.62 1014.66 1013.04 1012.27 1012.44 1011.97 1011.43 1010.23 1009.01 1006.26 1005.24 1005.21 1005.33 1005.18 1005.03 1004.79 1004.47 1004.43 1004.33 1003.74 1002.88 1001.92 1001.11 1000.49 999.97 999.23 999.25 999.37 999.49 999.79 999.75 999.09 999.01 999.28 999.07 999.18 999.43 999.62 999.64 999.72
1019.83 1019.38 1018.38 1017.36 1016.22 1015.21 1014.33 1012.05 1012.12 1011.84 1010.61 1008.34 1007.45 1006.53 1005.51 1005.46 1005.60 1004.98 1005.06 1005.02 1004.68 1004.26 1003.38 1002.91 1002.49 1001.59 1001.65 1001.70 1001.43 1001.09 1000.45 999.99 999.57 999.84 1000.37 1000.47 1000.33 1000.30 1000.38 1000.11 1000.57 1000.58 1000.85 1000.43 1000.84
1019.75 1019.18 1018.17 1017.30 1016.30 1014.77 1014.61 1012.22 1012.13 1011.75 1009.76 1007.04 1006.64 1006.17 1005.91 1005.75 1005.00 1004.83 1004.95 1004.65 1004.12 1003.24 1002.83 1002.52 1001.77 1002.06 1002.19 1002.09 1001.73 1001.13 1000.55 1000.15 999.94 1000.04 1000.70 1000.86 1003.06 1003.60 1003.80 1002.36 1001.69 1001.62 1001.70 1001.77 1001.90
1019.65 1019.08 1018.09 1017.22 1015.80 1014.70 1012.72 1012.18 1011.30 1010.99 1009.88 1006.52 1005.75 1005.22 1005.44 1005.49 1004.38 1004.43 1004.78 1004.11 1003.72 1002.99 1002.45 1001.74 1002.05 1002.46 1002.26 1001.58 1001.30 1000.81 1000.95 1001.05 1000.86 1000.53 1000.60 1001.37 1005.59 1006.28 1005.02 1002.65 1002.72 1002.56 1002.45 1002.85 1003.20
1019.83 1019.05 1018.65 1017.32 1015.68 1013.71 1012.05 1011.89 1011.44 1011.37 1009.47 1006.23 1005.32 1004.62 1004.98 1004.96 1004.54 1004.51 1004.53 1004.44 1003.50 1002.73 1002.47 1001.85 1002.32 1002.43 1001.91 1001.40 1001.53 1000.77 1001.32 1001.26 1000.96 1000.64 1000.06 1001.03 1006.23 1007.83 1005.92 1003.50 1003.48 1003.56 1003.23 1003.33 1003.86
1019.80 1019.48 1018.67 1018.69 1016.80 1013.43 1012.52 1011.87 1011.79 1011.47 1007.82 1005.25 1004.39 1004.43 1004.18 1004.37 1004.34 1004.51 1004.61 1004.38 1003.44 1002.74 1002.96 1002.23 1002.08 1002.15 1001.80 1001.78 1002.08 1001.75 1001.80 1001.50 1001.00 1000.87 1000.68 1001.36 1004.60 1008.06 1006.46 1004.20 1004.16 1004.24 1004.21 1004.09 1004.34
1019.95 1019.48 1019.15 1016.28 1015.91 1013.47 1012.36 1012.08 1011.67 1010.43 1006.15 1004.79 1004.22 1004.24 1004.23 1004.14 1004.01 1004.35 1004.56 1004.55 1003.77 1003.34 1002.90 1002.43 1002.52 1002.55 1002.27 1002.21 1001.88 1001.88 1001.80 1001.29 1001.11 1001.02 1001.29 1002.53 1003.97 1008.45 1007.29 1004.51 1004.41 1004.60 1004.75 1004.86 1005.00
1019.70 1019.29 1019.39 1017.72 1014.47 1013.41 1012.88 1011.93 1010.44 1007.55 1004.88 1004.63 1004.11 1003.93 1003.46 1003.73 1003.92 1004.08 1004.07 1003.82 1003.31 1003.03 1002.38 1002.22 1002.14 1002.18 1002.46 1001.66 1001.22 1001.33 1001.43 1000.92 1000.80 1002.38 1002.82 1003.32 1003.33 1004.74 1004.91 1004.78 1005.01 1005.10 1005.16 1005.46 1005.79
1019.02 1018.53 1016.73 1015.80 1014.64 1013.84 1013.04 1011.52 1008.80 1004.95 1004.27 1004.06 1003.65 1003.43 1003.38 1003.52 1003.68 1003.74 1003.55 1003.38 1003.70 1003.57 1002.48 1001.54 1001.98 1002.04 1002.57 1002.37 1002.08 1001.88 1002.10 1002.35 1002.52 1002.42 1002.53 1002.89 1004.77 1004.85 1005.11 1005.34 1005.46 1005.58 1005.96 1006.39 1006.65
1018.78 1016.37 1015.05 1013.60 1013.64 1013.78 1012.76 1010.07 1006.63 1005.03 1004.66 1004.50 1003.85 1003.46 1003.50 1003.78 1003.66 1003.63 1003.74 1004.13 1004.85 1004.79 1004.25 1002.99 1002.35 1002.70 1002.94 1002.95 1002.84 1002.58 1002.63 1003.34 1003.46 1002.97 1003.37 1004.91 1006.54 1006.24 1005.48 1005.87 1006.08 1006.15 1006.71 1007.32 1007.61
1018.77 1016.07 1013.52 1012.75 1013.62 1013.39 1011.91 1008.97 1006.68 1006.10 1005.40 1004.78 1003.91 1003.44 1003.42 1003.75 1003.87 1003.66 1004.29 1005.70 1005.89 1005.63 1005.12 1004.66 1004.08 1003.03 1003.04 1003.02 1002.86 1003.17 1003.38 1003.53 1003.79 1004.17 1004.53 1004.25 1006.36 1006.40 1006.51 1007.05 1007.02 1007.06 1007.62 1008.06 1008.18
1018.77 1015.08 1013.03 1012.69 1013.28 1012.59 1010.36 1007.96 1006.79 1006.63 1006.23 1005.37 1004.52 1003.92 1003.36 1003.69 1003.91 1003.80 1005.14 1006.78 1006.82 1006.39 1006.01 1006.08 1005.60 1004.12 1003.29 1003.27 1003.48 1003.58 1003.89 1004.61 1005.45 1005.93 1005.99 1005.97 1006.28 1006.83 1007.47 1008.08 1008.32 1008.24 1008.51 1008.71 1008.87
1017.53 1014.20 1012.75 1012.89 1012.51 1010.89 1009.28 1007.71 1008.10 1006.86 1006.82 1006.06 1005.45 1004.50 1004.48 1004.69 1004.77 1004.72 1006.10 1007.27 1007.78 1007.46 1006.98 1007.62 1007.20 1006.03 1004.84 1004.29 1004.55 1004.77 1004.98 1005.91 1006.88 1007.14 1007.44 1007.63 1007.22 1007.57 1008.15 1008.75 1009.21 1009.29 1009.40 1009.39 1009.64
1016.30 1013.24 1012.91 1012.75 1011.26 1009.74 1008.82 1008.27 1007.92 1007.07 1006.68 1006.45 1005.97 1005.63 1005.58 1005.53 1005.97 1006.17 1007.08 1008.37 1008.39 1008.64 1009.22 1009.13 1007.92 1007.10 1005.01 1004.98 1005.39 1005.35 1005.66 1006.43 1006.99 1007.52 1007.90 1007.93 1007.52 1007.69 1008.32 1009.25 1009.63 1009.96 1010.06 1009.97 1010.08
1016.58 1012.90 1012.52 1012.52 1011.44 1010.53 1008.81 1008.42 1008.06 1007.45 1006.85 1006.79 1006.49 1006.45 1006.50 1006.55 1006.93 1006.99 1007.46 1008.69 1009.03 1009.66 1010.22 1010.13 1009.40 1008.72 1007.72 1006.71 1006.64 1006.45 1006.55 1006.82 1007.25 1007.73 1007.86 1008.05 1007.97 1008.06 1009.31 1009.97 1010.28 1010.29 1010.39 1010.48 1010.42
1016.32 1012.76 1011.68 1011.24 1010.86 1010.12 1009.21 1008.33 1007.86 1007.79 1007.57 1007.39 1007.29 1006.97 1006.98 1007.03 1007.02 1007.19 1007.73 1008.36 1009.27 1010.06 1010.16 1010.57 1010.00 1009.12 1008.30 1007.71 1007.22 1006.85 1006.79 1006.99 1007.31 1007.85 1008.55 1008.87 1008.98 1009.63 1010.19 1010.43 1010.47 1011.07 1011.17 1011.38 1011.22
1015.67 1013.37 1011.88 1011.34 1010.35 1009.96 1009.73 1008.65 1007.79 1007.59 1007.66 1007.61 1007.52 1007.40 1007.52 1007.84 1007.70 1007.74 1008.23 1008.75 1009.05 1009.71 1010.25 1010.83 1010.60 1009.89 1009.02 1007.93 1006.92 1007.13 1007.31 1007.33 1007.88 1008.67 1009.15 1009.37 1009.91 1010.67 1011.34 1011.56 1011.51 1011.57 1011.92 1012.48 1012.24
1014.94 1014.26 1013.47 1011.17 1010.61 1009.95 1009.32 1008.81 1008.15 1007.58 1008.06 1007.74 1007.84 1007.97 1008.28 1008.70 1009.01 1009.45 1009.71 1010.10 1010.33 1010.70 1010.94 1011.19 1011.09 1010.61 1009.36 1008.49 1008.17 1007.90 1008.54 1008.80 1009.37 1009.81 1010.13 1010.30 1010.98 1011.32 1011.65 1011.92 1012.12 1012.36 1012.86 1013.36 1013.21
Thickness
5719 5726 5732 5738 5743 5749 5757 5764 5768 5771 5775 5778 5783 5787 5790 5793 5800 5808 5816 5825 5829 5829 5828 5833 5838 5837 5837 5828 5838 5837 5798 5796 5822 5840 5856 5871 5853 5870 5875 5865 5876 5882 5864 5859 5858
5718 5724 5730 5736 5741 5748 5758 5763 5767 5772 5776 5779 5784 5788 5790 5792 5804 5817 5829 5829 5829 5827 5824 5828 5828 5835 5823 5829 5833 5817 5803 5820 5856 5859 5849 5861 5851 5852 5854 5855 5866 5868 5870 5866 5861
5717 5722 5727 5733 5739 5750 5758 5763 5768 5773 5777 5780 5785 5788 5790 5792 5805 5821 5831 5831 5829 5827 5829 5836 5837 5832 5822 5835 5833 5827 5805 5835 5844 5849 5851 5845 5844 5855 5846 5840 5861 5856 5856 5860 5857
5714 5718 5725 5731 5740 5750 5758 5763 5769 5774 5777 5781 5786 5788 5790 5797 5794 5829 5831 5831 5828 5828 5828 5832 5829 5820 5822 5820 5839 5815 5834 5835 5837 5845 5842 5834 5846 5842 5845 5847 5867 5872 5876 5873 5858
5710 5715 5724 5731 5740 5750 5758 5765 5771 5775 5778 5783 5786 5788 5796 5801 5816 5834 5832 5830 5830 5830 5828 5829 5822 5825 5816 5830 5831 5821 5831 5839 5842 5842 5839 5844 5836 5837 5843 5865 5877 5874 5871 5870 5872
5707 5714 5723 5730 5742 5751 5758 5767 5772 5777 5781 5785 5787 5788 5797 5795 5846 5838 5837 5835 5834 5837 5835 5835 5830 5834 5821 5824 5822 5833 5832 5833 5841 5841 5843 5834 5838 5844 5854 5868 5865 5868 5864 5867 5872
5704 5710 5721 5730 5741 5750 5758 5768 5774 5779 5783 5786 5787 5791 5799 5813 5847 5844 5841 5838 5844 5840 5831 5841 5837 5825 5829 5819 5842 5834 5816 5833 5840 5842 5837 5845 5824 5832 5861 5862 5856 5862 5866 5864 5864
5702 5710 5719 5729 5739 5750 5759 5769 5776 5781 5784 5787 5787 5792 5803 5842 5844 5840 5843 5837 5843 5843 5836 5841 5839 5826 5821 5834 5828 5820 5825 5811 5836 5841 5844 5839 5820 5851 5861 5854 5849 5856 5860 5862 5859
5699 5707 5718 5728 5740 5751 5760 5771 5778 5783 5784 5786 5790 5796 5804 5838 5827 5842 5843 5831 5837 5836 5837 5837 5829 5818 5824 5810 5805 5824 5816 5829 5830 5843 5834 5835 5826 5853 5859 5850 5846 5850 5853 5858 5859
5693 5704 5716 5727 5740 5750 5761 5777 5783 5783 5788 5791 5800 5789 5817 5815 5831 5836 5843 5837 5824 5826 5819 5817 5815 5805 5813 5811 5788 5802 5818 5823 5816 5832 5829 5822 5833 5849 5848 5848 5839 5835 5835 5837 5841
5692 5702 5715 5726 5740 5751 5761 5781 5781 5779 5786 5797 5802 5805 5816 5829 5835 5829 5835 5826 5823 5815 5798 5817 5799 5798 5806 5812 5814 5811 5810 5809 5826 5834 5816 5814 5824 5833 5836 5831 5821 5823 5822 5828 5823
5690 5700 5712 5724 5738 5753 5755 5771 5766 5771 5768 5810 5810 5811 5819 5823 5807 5819 5833 5807 5806 5795 5811 5804 5795 5812 5815 5812 5807 5809 5806 5806 5823 5829 5817 5819 5788 5789 5785 5801 5815 5814 5811 5814 5815
5688 5697 5710 5721 5737 5750 5765 5765 5779 5780 5762 5798 5810 5810 5809 5816 5809 5810 5820 5815 5802 5798 5805 5800 5805 5815 5808 5808 5804 5811 5797 5794 5794 5815 5824 5817 5745 5748 5774 5818 5811 5812 5811 5809 5805
5684 5695 5702 5717 5734 5752 5760 5770 5774 5775 5747 5779 5792 5806 5811 5812 5797 5825 5826 5811 5805 5798 5806 5809 5816 5806 5805 5804 5807 5799 5812 5805 5801 5798 5790 5825 5725 5733 5762 5801 5798 5799 5802 5801 5800
5680 5688 5700 5703 5721 5745 5755 5765 5769 5762 5734 5791 5797 5826 5819 5801 5805 5805 5827 5811 5795 5803 5802 5796 5804 5801 5797 5800 5807 5793 5811 5805 5808 5800 5807 5808 5765 5728 5738 5784 5784 5788 5793 5795 5795
5677 5685 5692 5715 5722 5743 5756 5761 5759 5731 5735 5775 5796 5789 5789 5799 5802 5808 5805 5816 5818 5802 5808 5806 5823 5811 5806 5811 5814 5816 5805 5808 5810 5805 5780 5794 5775 5704 5721 5778 5783 5786 5787 5788 5786
5675 5683 5687 5701 5726 5740 5747 5747 5729 5732 5789 5769 5776 5790 5793 5787 5790 5795 5791 5790 5786 5775 5783 5803 5805 5818 5817 5803 5820 5814 5796 5774 5764 5739 5746 5786 5792 5766 5779 5785 5780 5778 5780 5780 5779
5678 5686 5701 5710 5722 5733 5737 5729 5717 5777 5775 5792 5790 5792 5779 5791 5791 5794 5793 5786 5800 5793 5791 5795 5772 5804 5813 5801 5792 5797 5791 5762 5730 5747 5770 5799 5754 5756 5781 5786 5782 5779 5775 5772 5766
5676 5698 5709 5724 5726 5728 5722 5718 5749 5767 5779 5772 5783 5774 5774 5785 5790 5791 5787 5780 5784 5790 5767 5778 5785 5810 5808 5809 5804 5786 5774 5793 5766 5786 5772 5755 5736 5766 5775 5772 5771 5765 5760 5755 5752
5670 5692 5712 5727 5723 5721 5715 5720 5752 5769 5775 5778 5763 5782 5767 5776 5777 5786 5779 5778 5773 5789 5797 5782 5759 5801 5804 5809 5807 5791 5800 5763 5773 5737 5730 5768 5709 5716 5742 5742 5753 5750 5743 5741 5743
5668 5693 5716 5724 5722 5713 5712 5738 5755 5766 5770 5765 5767 5771 5783 5776 5782 5786 5766 5767 5775 5779 5790 5779 5769 5779 5800 5786 5776 5779 5771 5768 5762 5754 5728 5726 5739 5754 5743 5733 5732 5737 5734 5729 5729
5674 5686 5716 5719 5702 5720 5723 5747 5739 5758 5764 5765 5771 5775 5771 5774 5770 5773 5755 5759 5773 5776 5763 5767 5756 5745 5766 5792 5791 5780 5765 5755 5722 5720 5732 5725 5731 5757 5743 5729 5723 5724 5725 5723 5717
5676 5700 5713 5714 5700 5718 5735 5739 5745 5750 5755 5757 5758 5769 5774 5764 5749 5761 5757 5761 5768 5760 5743 5750 5747 5731 5758 5772 5772 5761 5764 5757 5749 5740 5717 5707 5726 5748 5734 5720 5715 5711 5711 5711 5703
5672 5689 5702 5704 5712 5710 5725 5726 5728 5752 5755 5760 5759 5764 5757 5751 5758 5749 5749 5753 5761 5753 5741 5744 5738 5729 5719 5738 5750 5738 5747 5751 5740 5714 5716 5719 5723 5738 5713 5700 5699 5701 5693 5698 5695
5669 5690 5705 5696 5704 5715 5724 5731 5728 5727 5747 5753 5745 5751 5747 5737 5746 5744 5751 5751 5752 5738 5746 5738 5722 5737 5745 5749 5750 5747 5745 5744 5733 5729 5704 5711 5706 5702 5701 5702 5702 5692 5683 5679 5676
5662 5680 5703 5701 5715 5713 5709 5721 5728 5735 5738 5734 5735 5745 5747 5734 5742 5736 5744 5742 5740 5748 5739 5737 5715 5729 5725 5746 5753 5738 5741 5741 5732 5720 5712 5710 5693 5701 5691 5688 5685 5680 5671 5661 5660
5670 5679 5679 5698 5703 5706 5712 5719 5726 5740 5739 5745 5741 5738 5734 5736 5744 5742 5742 5739 5736 5727 5724 5721 5715 5710 5709 5737 5732 5715 5718 5717 5713 5709 5701 5686 5687 5693 5681 5676 5672 5661 5657 5647 5646